[[{"header":{"parameterUnit":"m.s-1","parameterCategory":1,"la1":30.2991,"la2":30.254,"lo1":-89.0895,"lo2":-89.0444,"dy":0.0017,"dx":0.0017,"nx":28,"ny":28,"refTime":"2025-05-28T21:00:00:Z","depth":0,"parameterNumber":2,"parameterNumberName":"U-component_of_WINDS"},"data":[0,0,0,0,0,0,0,0,0,0,0,0,0,0,0,0,0,0,0,0,0,0,0,0,0,0,0,0,0,0,0,0,0,0,0,0,0,0,0,0,0,0,0,0,0,0,0,0,0,0,0,0,0,0,0,0,0,0,1.9993,1.9993,0,2.0005,2.0006,2.0006,1.9925,1.9923,1.9921,1.9919,1.9929,1.9932,1.9934,0,0,0,0,0,0,0,0,0,0,0,0,0,1.99,1.9903,1.9993,1.9993,1.9994,2.0005,2.0006,2.0006,1.9926,1.9923,1.992,1.9918,1.9929,1.9931,1.9934,0,0,0,0,0,0,0,0,0,0,0,0,0,1.993,1.9903,1.9993,1.9955,1.9952,2.0005,2.0006,2.0006,1.9926,1.9923,1.9919,1.9916,1.9928,1.9931,1.9935,2.0025,0,0,1.9946,1.9947,0,0,0,0,0,0,0,0,1.9928,1.9933,1.9961,1.9958,1.9954,1.996,1.9977,2.0012,1.9927,1.9936,1.9919,1.9915,1.9942,1.9945,1.9954,2.0025,2.0026,1.9946,1.9948,1.995,1.9951,0,0,0,0,0,0,0,1.9926,1.9932,1.9998,1.9961,1.9957,1.9937,1.9938,1.9983,1.9958,1.9935,1.9929,1.9932,1.994,1.9951,1.9954,2.0026,1.9946,1.9949,1.9951,1.9953,2.0174,2.0177,0,0,0,0,0,0,1.9929,1.9931,1.9998,1.9998,1.9933,1.9942,1.9942,1.9962,1.9957,1.9953,1.9935,1.9928,1.9946,1.995,1.9954,2.006,1.995,1.9953,1.9955,2.017,2.0175,2.0179,0,0,0,0,0,0,1.9928,1.9936,1.9997,1.9963,1.9969,1.9947,1.997,1.9964,1.9975,1.9957,1.9952,1.9951,1.9944,1.9949,2.0008,2.0059,1.9955,1.9958,2.0166,2.0172,2.0177,2.0273,0,0,0,0,0,0,1.9925,1.9936,1.997,1.9965,1.9972,2.0052,1.9973,1.9967,1.9981,1.9973,1.9971,1.9967,1.9942,2.0004,2.0012,2.0063,1.9961,2.0161,2.0168,2.0175,2.0265,2.0282,2.0295,0,0,0,0,0,1.9922,1.9996,1.9972,1.998,2.0014,2.0055,2.0059,2.0028,1.9986,2.002,2.0009,1.9967,2.0053,2.001,2.0019,2.0072,2.0158,2.0166,2.0174,2.0259,2.0278,2.0295,0,0,0,0,0,0,2.0006,1.9994,1.9968,2.0042,2.005,2.0041,2.0083,2.005,2.007,2.0061,2.0022,2.0022,2.0089,2.0086,2.0039,2.016,2.0098,2.0108,2.0159,2.0177,2.0192,2.0191,1.9964,0,0,0,0,0,2.0033,2.0068,2.0056,2.0122,2.0128,2.0105,2.0122,2.0098,2.0105,2.0108,2.0101,2.0109,2.0138,2.0157,2.0183,2.0265,2.0264,2.0306,2.0321,2.0333,2.0342,2.0387,2.0406,2.0206,2.0206,2.0206,0,0,2.0089,2.0087,2.0111,2.0139,2.0143,2.018,2.0108,2.015,2.0177,2.0114,2.017,2.0166,2.0172,2.0244,2.0275,2.0244,2.0398,2.0344,2.0354,2.0356,2.0398,2.0417,2.0433,2.0212,2.0211,2.021,0,0,2.0211,2.0213,2.0269,2.0275,2.0282,2.0267,2.0281,2.0278,2.0273,2.0329,2.0283,2.0315,2.0365,2.0372,2.0382,2.051,2.0472,2.0519,2.0596,2.0641,2.0656,2.067,2.0716,2.0733,2.0528,2.0529,2.0529,0,2.0279,2.0334,2.0302,2.0348,2.0362,2.0308,2.0365,2.0372,2.0387,2.0398,2.0363,2.0426,2.0426,2.05,2.0531,2.0541,2.0556,2.0518,2.0657,2.067,2.0683,2.0726,2.0744,2.0534,2.0534,2.0533,2.0533,0,2.0419,2.0458,2.0502,2.052,2.0539,2.059,2.0566,2.0589,2.0565,2.0554,2.0612,2.0611,2.0637,2.0652,2.0628,2.0723,2.0703,2.0663,2.06,2.0708,2.0748,2.0765,2.0542,2.054,2.0539,2.0537,0,0,2.0591,2.0593,2.061,2.0618,2.0623,2.0652,2.0702,2.0728,2.0749,2.0762,2.0802,2.0847,2.0811,2.0823,2.0799,2.0838,2.0941,2.0793,2.0792,2.0821,2.1046,2.1077,2.1096,2.0916,2.0919,2.0922,2.1046,0,2.071,2.0795,2.0769,2.0855,2.0891,2.0842,2.0885,2.0894,2.0885,2.0914,2.0904,2.0937,2.0886,2.0893,2.093,2.092,2.0985,2.0911,2.0954,2.0956,2.0954,2.1117,2.1149,2.1266,2.1061,2.1064,2.1066,0,2.086,2.0881,2.0971,2.0973,2.0987,2.1026,2.1049,2.1077,2.1086,2.1077,2.1092,2.1061,2.111,2.1048,2.1115,2.1066,2.1082,2.108,2.1084,2.1086,2.1017,2.1124,2.1302,2.132,2.109,2.1088,2.1087,0,2.0978,2.1028,2.1089,2.1097,2.1101,2.113,2.1132,2.1138,2.1156,2.1176,2.1187,2.1212,2.1226,2.1246,2.1223,2.1179,2.1294,2.1229,2.1288,2.1289,2.1313,2.1312,2.1497,2.1325,2.1324,2.1324,2.1324,0,2.1113,2.117,2.1142,2.118,2.1243,2.1213,2.1276,2.1273,2.1279,2.1315,2.1273,2.1308,2.1275,2.1307,2.1289,2.1348,2.1355,2.1349,2.1344,2.1353,2.1354,2.1362,2.1353,2.1329,2.1328,2.1327,2.1326,0,2.1255,2.1238,2.1301,2.13,2.1301,2.1348,2.1347,2.1381,2.1371,2.1417,2.1426,2.141,2.1445,2.1425,2.1461,2.1449,2.1526,2.1509,2.1523,2.1519,2.1579,2.1573,2.1775,2.18,2.1612,2.1614,2.1616,0,2.1342,2.1385,2.139,2.1412,2.1418,2.1453,2.1472,2.1445,2.1466,2.1481,2.1514,2.1547,2.1571,2.163,2.1621,2.1649,2.1632,2.1701,2.1636,2.1644,2.1634,2.1631,2.1636,2.1714,2.1716,2.1718,2.172,0,2.1499,2.149,2.1519,2.1546,2.1571,2.159,2.1606,2.1627,2.16,2.1626,2.1663,2.1682,2.172,2.1753,2.1777,2.1779,2.1745,2.1741,2.1756,2.1765,2.1771,2.1769,2.1559,2.1736,2.1734,2.1733,2.1732,2.1731,2.1616,2.1653,2.1663,2.1697,2.1707,2.1724,2.1757,2.1752,2.1783,2.1812,2.1795,2.1838,2.1847,2.1877,2.1884,2.1917,2.1889,2.1911,2.1916,2.1922,2.193,2.1767,2.1921,2.1921,2.192,2.192,2.192,0,2.1772,2.1776,2.1809,2.1834,2.1862,2.1829,2.1846,2.1871,2.191,2.1922,2.1948,2.1991,2.2024,2.2018,2.2048,2.2076,2.2061,2.2084,2.2081,2.2083,2.1953,2.1938,2.2096,2.2096,2.2096,2.2096,2.2096,2.2095,2.1856,2.1917,2.1909,2.1975,2.1979,2.2022,2.2035,2.2051,2.206,2.2111,2.2138,2.2135,2.214,2.217,2.2199,2.2196,2.2209,2.2238,2.223,2.2109,2.2092,2.2075,2.206,2.2241,2.2241,2.2356,2.2357,2.2358]},{"header":{"parameterUnit":"m.s-1","parameterCategory":1,"la1":30.2991,"la2":30.254,"lo1":-89.0895,"lo2":-89.0444,"dy":0.0017,"dx":0.0017,"nx":28,"ny":28,"refTime":"2025-05-28T21:00:00:Z","depth":0,"parameterNumber":3,"parameterNumberName":"V-component_of_WINDS"},"data":[0,0,0,0,0,0,0,0,0,0,0,0,0,0,0,0,0,0,0,0,0,0,0,0,0,0,0,0,0,0,0,0,0,0,0,0,0,0,0,0,0,0,0,0,0,0,0,0,0,0,0,0,0,0,0,0,0,0,-0.4411,-0.4411,0,-0.4436,-0.4436,-0.4437,-0.4513,-0.4514,-0.4516,-0.4518,-0.4537,-0.4536,-0.4535,0,0,0,0,0,0,0,0,0,0,0,0,0,-0.4419,-0.4419,-0.4411,-0.4411,-0.4411,-0.4436,-0.4436,-0.4437,-0.4512,-0.4515,-0.4517,-0.4519,-0.4537,-0.4536,-0.4535,0,0,0,0,0,0,0,0,0,0,0,0,0,-0.4427,-0.4418,-0.4411,-0.4452,-0.4456,-0.4436,-0.4436,-0.4437,-0.4512,-0.4515,-0.4517,-0.452,-0.4538,-0.4536,-0.4535,-0.4474,0,0,-0.453,-0.4529,0,0,0,0,0,0,0,0,-0.4426,-0.4426,-0.4446,-0.445,-0.4454,-0.4474,-0.4446,-0.4449,-0.4511,-0.4491,-0.4518,-0.4521,-0.4514,-0.4514,-0.4513,-0.4475,-0.4476,-0.453,-0.4529,-0.4528,-0.4528,0,0,0,0,0,0,0,-0.4426,-0.4426,-0.4421,-0.4446,-0.4451,-0.4467,-0.4471,-0.4447,-0.4487,-0.4493,-0.4498,-0.4501,-0.4516,-0.4514,-0.4514,-0.4476,-0.453,-0.4528,-0.4527,-0.4527,-0.4382,-0.4379,0,0,0,0,0,0,-0.442,-0.4425,-0.442,-0.4421,-0.4446,-0.4464,-0.4469,-0.4465,-0.4488,-0.4494,-0.4498,-0.4504,-0.4516,-0.4516,-0.4515,-0.4441,-0.4528,-0.4527,-0.4526,-0.4385,-0.4381,-0.4378,0,0,0,0,0,0,-0.442,-0.4419,-0.4419,-0.4425,-0.4426,-0.4462,-0.4456,-0.4464,-0.4462,-0.4492,-0.4499,-0.449,-0.4518,-0.4517,-0.4483,-0.4442,-0.4526,-0.4524,-0.4388,-0.4384,-0.438,-0.4294,0,0,0,0,0,0,-0.442,-0.4419,-0.4398,-0.4424,-0.4425,-0.4388,-0.4454,-0.4463,-0.446,-0.4468,-0.4486,-0.4491,-0.452,-0.4484,-0.4481,-0.4442,-0.4523,-0.4392,-0.4386,-0.4381,-0.43,-0.4287,-0.4276,0,0,0,0,0,-0.442,-0.4373,-0.4397,-0.4396,-0.4401,-0.4386,-0.4387,-0.4422,-0.4457,-0.4435,-0.4453,-0.4491,-0.4448,-0.448,-0.4477,-0.4437,-0.4394,-0.4388,-0.4381,-0.4306,-0.429,-0.4276,0,0,0,0,0,0,-0.4342,-0.4378,-0.4404,-0.4365,-0.4372,-0.4399,-0.4373,-0.4405,-0.4401,-0.4408,-0.4451,-0.4454,-0.4411,-0.4421,-0.4457,-0.4375,-0.4427,-0.4419,-0.4371,-0.4355,-0.4343,-0.434,-0.4522,0,0,0,0,0,-0.432,-0.4308,-0.4339,-0.4301,-0.4303,-0.4337,-0.4332,-0.4358,-0.4366,-0.4369,-0.4386,-0.439,-0.4376,-0.4367,-0.4357,-0.4303,-0.4304,-0.4273,-0.426,-0.425,-0.4242,-0.4207,-0.4192,-0.4357,-0.4357,-0.4357,0,0,-0.4275,-0.4293,-0.4282,-0.4285,-0.4294,-0.4276,-0.4339,-0.4319,-0.4305,-0.4366,-0.4333,-0.4344,-0.4351,-0.4305,-0.4285,-0.4311,-0.4197,-0.4242,-0.4233,-0.4231,-0.4199,-0.4183,-0.4169,-0.4352,-0.4353,-0.4354,0,0,-0.4182,-0.4197,-0.4164,-0.4171,-0.4183,-0.4205,-0.4197,-0.4218,-0.4228,-0.4197,-0.424,-0.4223,-0.4201,-0.4202,-0.42,-0.4103,-0.4135,-0.4098,-0.4033,-0.3998,-0.3985,-0.3974,-0.3933,-0.3919,-0.4091,-0.4091,-0.4091,0,-0.4123,-0.4101,-0.4143,-0.4118,-0.4116,-0.4171,-0.4135,-0.4139,-0.4146,-0.4141,-0.4172,-0.4142,-0.4151,-0.4102,-0.4078,-0.4076,-0.4064,-0.4095,-0.3985,-0.3973,-0.3963,-0.3925,-0.391,-0.4086,-0.4086,-0.4087,-0.4087,0,-0.4025,-0.4009,-0.398,-0.3986,-0.3981,-0.3951,-0.3984,-0.3973,-0.3999,-0.4016,-0.3979,-0.3992,-0.3982,-0.3974,-0.3999,-0.3926,-0.3942,-0.3978,-0.4029,-0.3942,-0.3906,-0.3892,-0.4079,-0.4081,-0.4082,-0.4083,0,0,-0.3885,-0.3912,-0.39,-0.3901,-0.3917,-0.3903,-0.3873,-0.3865,-0.3851,-0.3854,-0.3826,-0.3804,-0.3836,-0.3833,-0.3859,-0.3829,-0.3744,-0.3868,-0.3869,-0.384,-0.3657,-0.3626,-0.3609,-0.3766,-0.3764,-0.3762,-0.3654,0,-0.3793,-0.3746,-0.378,-0.3725,-0.3707,-0.3757,-0.373,-0.3734,-0.3748,-0.3732,-0.3747,-0.3729,-0.3776,-0.3773,-0.3746,-0.376,-0.3707,-0.3769,-0.3736,-0.3734,-0.3728,-0.3592,-0.3561,-0.3459,-0.3641,-0.3639,-0.3638,0,-0.3681,-0.3677,-0.362,-0.3634,-0.3628,-0.3604,-0.3596,-0.3582,-0.3585,-0.3597,-0.3591,-0.3623,-0.359,-0.3643,-0.3594,-0.3635,-0.3624,-0.3628,-0.3624,-0.362,-0.3678,-0.3578,-0.3428,-0.3411,-0.3617,-0.3619,-0.362,0,-0.3577,-0.3559,-0.3521,-0.3521,-0.3538,-0.3518,-0.3524,-0.353,-0.3521,-0.3513,-0.3507,-0.3495,-0.3488,-0.3476,-0.3501,-0.3539,-0.3446,-0.3503,-0.3451,-0.3449,-0.3427,-0.3427,-0.3268,-0.3426,-0.3427,-0.3427,-0.3427,0,-0.3469,-0.3431,-0.3474,-0.345,-0.3406,-0.3444,-0.3399,-0.341,-0.3414,-0.339,-0.3433,-0.3408,-0.3446,-0.3423,-0.3443,-0.3396,-0.3393,-0.3398,-0.3403,-0.3392,-0.339,-0.3382,-0.3388,-0.3423,-0.3424,-0.3425,-0.3425,0,-0.3346,-0.3374,-0.3334,-0.3353,-0.3356,-0.3323,-0.3337,-0.3313,-0.333,-0.3298,-0.3292,-0.3317,-0.3292,-0.3317,-0.3295,-0.3307,-0.3242,-0.326,-0.3241,-0.3244,-0.3188,-0.3191,-0.3015,-0.2991,-0.3169,-0.3167,-0.3166,0,-0.3273,-0.3244,-0.3259,-0.3246,-0.3249,-0.3229,-0.322,-0.3254,-0.3242,-0.3241,-0.3215,-0.3195,-0.318,-0.3137,-0.3151,-0.3132,-0.3146,-0.3085,-0.3143,-0.3131,-0.3138,-0.3138,-0.3132,-0.3072,-0.307,-0.3068,-0.3067,0,-0.3139,-0.3153,-0.3139,-0.3128,-0.3116,-0.3108,-0.3104,-0.309,-0.3126,-0.3109,-0.3085,-0.3073,-0.3048,-0.3025,-0.3009,-0.3011,-0.3042,-0.3049,-0.3035,-0.3021,-0.3009,-0.3009,-0.3204,-0.3052,-0.3054,-0.3055,-0.3055,-0.3056,-0.3035,-0.301,-0.3015,-0.2996,-0.2996,-0.299,-0.2967,-0.298,-0.2961,-0.2944,-0.2965,-0.2933,-0.2931,-0.2914,-0.2911,-0.2884,-0.2909,-0.289,-0.2884,-0.2878,-0.2867,-0.3016,-0.2882,-0.2882,-0.2883,-0.2883,-0.2884,0,-0.2899,-0.2904,-0.2886,-0.2878,-0.2861,-0.2895,-0.2891,-0.2873,-0.2845,-0.2843,-0.2826,-0.2794,-0.2771,-0.2781,-0.2759,-0.2735,-0.2748,-0.2727,-0.2727,-0.2725,-0.2849,-0.2861,-0.2716,-0.2716,-0.2717,-0.2717,-0.2717,-0.2717,-0.2826,-0.2782,-0.2796,-0.2751,-0.2756,-0.2726,-0.272,-0.2712,-0.2709,-0.2673,-0.2653,-0.2661,-0.2661,-0.2639,-0.2616,-0.262,-0.2607,-0.258,-0.2587,-0.2702,-0.2718,-0.2733,-0.2744,-0.2578,-0.2578,-0.2466,-0.2465,-0.2464]}]]